sat.trackr.live / text

‹ back to catalog

ONEWEB-0593

NORAD 54659 · 2022-166T

PAYLOAD ACTIVE UNKNOWN

§ Identity

Operator
Country
UK
Launch date
2022-12-08
Launch site
AFETR
Launch vehicle
Mass (kg)
RCS (m²)

Purposes: comms

External: N2YO · Heavens-Above · Gunter

§ Orbital elements

Epoch: 2026-09-20T04:22:36.692832Z

Period
108.94 min
Inclination
87.9286°
Eccentricity
0.0002200
Mean motion
13.21825711 rev/d
Perigee alt
1,176.1 km
Apogee alt
1,179.4 km
Semi-major
7,555.9 km
B*
-1.2377e-4
RAAN
225.0682°
Arg perigee
78.4324°
Mean anomaly
281.7057°
Rev number
18,409

§ Raw data

ONEWEB-05931 54659U 22166T   26263.18236913 -.00000038  00000+0 -12377-3 0  99932 54659  87.9286 225.0682 0002200  78.4324 281.7057 13.21825711184091

JSON: /api/v1/satellites/54659 · /tle

For live sub-satellite position, see the globe view (requires WebGL).

§ Visibility from observer

Set your observer location to see the next 7 days of passes ≥ 10°. The values pass through the URL so the page stays shareable.

No JS? Fill the form by hand. The geolocation button needs JavaScript.